Location: Melizzano
(41.1500°N, 14.5000°E)
Time: 07:04:23
(UTC+00:00)

USA 306 - Pass Details

Date: 11 May 2021
Orbit: 565 x 575 km, 54.0° (Epoch: 11 May)

Event Time Altitude Azimuth Distance (km) Brightness Sun altitude
Rises 20:43:17 0° 312° (NW) 2,773 7.8 -23.0°
Reaches altitude 10° 20:45:35 10° 317° (NW) 1,874 6.6 -23.2°
Maximum altitude 20:49:47 54° 36° (NE) 694 3.3 -23.7°
Enters shadow 20:49:59 54° 48° (NE) 700 3.3 -23.7°
